LARES-2

Last updated on Mon Dec 15 2025 00:03:46 GMT+0000 (Coordinated Universal Time)

1 53105U 22080A 25347.53916397 -.00000020 00000+0 00000+0 0 9991 2 53105 70.1792 8.9829 0005209 14.1605 345.9273 6.38965121 79809
UTC large
Height (km)
Speed (km/s)
/
Latitude / Longitude
Inclination (degrees)
Orbital Period (minutes)
Azimuth
Elevation
Range (km)
Doppler Factor

Next 0 passes for location: London (51.5072 / 0.1276)

Sorry there are no passes over London.